ESST

Details ICAO ESST (TYF)
Name TORSBY
Region Sweden
Timezone Europe/Stockholm (UTC+1.0)
Plans Departing 7
Arriving 6
Stats Elevation 393 ft / 120 m (AMSL)
Location 60.157373° 12.991474°
Runways 1
Magnetic Variation 4.174° E
Sunrise 2017-12-14 08:06:59 UTC / 2017-12-14 09:06:59 Local
Sunset 2017-12-14 14:01:12 UTC / 2017-12-14 15:01:12 Local
Advertisement - Login to hide

Runways

ID Width Length Bearing (true) Bearing (mag) Surface Threshold Offset Overrun Length
16 95 ft / 29 m 5,208 ft / 1,587 m 157.74° 153.57° Asphalt 367 ft / 112 m 0 ft / 0 m
34 95 ft / 29 m 5,208 ft / 1,587 m 337.75° 333.58° Asphalt 0 ft / 0 m 0 ft / 0 m

Approach Navaids

Runway Type Ident Frequency Range Bearing (true) Bearing (mag) Slope Elevation
16 Localiser NST 108.70 MHz 18 nm / 33 km 157.77° 153.59° - 393 ft / 120 m (AMSL)
16 DME NST 108.70 MHz 18 nm / 33 km - - - 397 ft / 121 m (AMSL)
34 Localiser ST 110.90 MHz 18 nm / 33 km 337.74° 333.57° - 393 ft / 120 m (AMSL)

Map

Weather


0- 5 10 15 20 25 30 35+ Temperature / ° C

Clouds and Precipitation
Forecast for 2017-12-14 12:00 UTC. Updated 2 hours ago

Ground ~20,000 ft ~40,000 ft Winds

METAR

ESST 141220Z AUTO VRB03KT 9999 -SN SCT014/// OVC025/// 01/00 Q0981 RESG

TAF

Not found

Frequencies

Tower 122.05 MHz AFIS
Warning: Do not use this data for real-world aviation or navigation. No guarantee of current accuracy is given.